Weather History for KSBY - December, 2012

Change the Weather History Date:

Thursday, December 6, 2012

  Actual Average Record
Temperature  
Mean Temperature 38 °F 42 °F  
Max Temperature 47 °F 51 °F 77 °F (1998)
Min Temperature 29 °F 32 °F 11 °F (2007)
Degree Days  
Heating Degree Days 27 23  
Month to date heating degree days 82 135  
Since 1 July heating degree days 826 953  
Cooling Degree Days 0 0  
Month to date cooling degree days 0 0  
Year to date cooling degree days 1732 1153  
Moisture  
Dew Point 23 °F    
Average Humidity 62    
Maximum Humidity 85    
Minimum Humidity 38    
Precipitation  
Precipitation 0.00 in 0.13 in 1.04 in (1945)
Month to date precipitation T 0.77  
Year to date precipitation 39.97 42.74  
Snow  
Snow 0.00 in 0.10 in 2.00 in (2005)
Month to date snowfall 0.0 0.3  
Since 1 July snowfall 0.0 0.5  
Snow Depth 0.00 in    
Sea Level Pressure  
Sea Level Pressure 30.32 in    
Wind  
Wind Speed 4 mph (NNE)    
Max Wind Speed 13 mph    
Max Gust Speed 17 mph    
Visibility 10 miles    
Events      
T = Trace of Precipitation, MM = Missing Value Source: NWS Daily Summary

Daily Weather History Graph

Daily Weather History Graph

Search for Another Location

Airport or City:

Trip Planner

Search our weather history database for the weather conditions in past years. The results will help you decide how hot, cold, wet, or windy it might be!

Date:

Astronomy

Dec. 06, 2012 Rise Set
Actual Time 7:05 AM EST 4:41 PM EST
Civil Twilight 6:35 AM EST 5:10 PM EST
Nautical Twilight 6:02 AM EST 5:43 PM EST
Astronomical Twilight 5:30 AM EST 6:15 PM EST
Moon No Moon Rise 12:01 PM EST (12/6)
Length of Visible Light 10h 35m
Length of Day
9h 36m
Waning Gibbous, 49% of the Moon is Illuminated
Dec 6
Waning Gibbous
Dec 13
New
Dec 20
First Quarter
Dec 28
Full
Jan 4
Last Quarter

Hourly Weather History & Observations

Time (EST) Temp. Windchill Dew Point Humidity Pressure Visibility Wind Dir Wind Speed Gust Speed Precip Events Conditions
12:54 AM 39.9 °F 34.5 °F 21.0 °F 47% 30.27 in 10.0 mi North 8.1 mph - N/A   Clear
1:54 AM 37.9 °F 32.1 °F 19.9 °F 48% 30.29 in 10.0 mi North 8.1 mph - N/A   Clear
2:54 AM 37.0 °F 32.4 °F 21.0 °F 52% 30.30 in 10.0 mi NNW 5.8 mph - N/A   Clear
3:54 AM 35.1 °F 30.1 °F 21.0 °F 57% 30.30 in 10.0 mi North 5.8 mph - N/A   Clear
4:54 AM 33.1 °F 28.7 °F 21.0 °F 61% 30.32 in 10.0 mi NNW 4.6 mph - N/A   Clear
5:54 AM 32.0 °F 28.7 °F 21.0 °F 64% 30.34 in 10.0 mi NNW 3.5 mph - N/A   Clear
6:54 AM 30.9 °F 25.2 °F 21.0 °F 67% 30.35 in 10.0 mi North 5.8 mph - N/A   Clear
7:54 AM 33.1 °F 26.9 °F 21.9 °F 64% 30.36 in 10.0 mi North 6.9 mph - N/A   Clear
8:54 AM 37.9 °F 32.1 °F 21.9 °F 53% 30.38 in 10.0 mi NNE 8.1 mph - N/A   Clear
9:54 AM 39.9 °F 32.9 °F 23.0 °F 51% 30.39 in 10.0 mi NNE 11.5 mph - N/A   Clear
10:54 AM 42.1 °F 39.2 °F 23.0 °F 47% 30.38 in 10.0 mi ENE 4.6 mph - N/A   Clear
11:54 AM 43.0 °F 41.3 °F 23.0 °F 45% 30.35 in 10.0 mi NE 3.5 mph - N/A   Clear
12:54 PM 45.0 °F 42.6 °F 23.0 °F 42% 30.34 in 10.0 mi NE 4.6 mph - N/A   Clear
1:54 PM 46.0 °F 44.8 °F 23.0 °F 40% 30.31 in 10.0 mi North 3.5 mph - N/A   Clear
2:54 PM 46.0 °F 44.8 °F 23.0 °F 40% 30.30 in 10.0 mi ENE 3.5 mph - N/A   Clear
3:54 PM 45.0 °F 42.6 °F 24.1 °F 44% 30.30 in 10.0 mi East 4.6 mph - N/A   Clear
4:54 PM 39.9 °F 37.8 °F 26.1 °F 58% 30.31 in 10.0 mi ESE 3.5 mph - N/A   Clear
5:54 PM 37.0 °F 34.5 °F 28.0 °F 70% 30.32 in 10.0 mi South 3.5 mph - N/A   Clear
6:54 PM 35.1 °F - 27.0 °F 72% 30.32 in 10.0 mi Calm Calm - N/A   Clear
7:54 PM 32.0 °F - 26.1 °F 79% 30.32 in 10.0 mi Calm Calm - N/A   Clear
8:54 PM 30.9 °F - 25.0 °F 79% 30.32 in 10.0 mi Calm Calm - N/A   Clear
9:54 PM 30.9 °F - 26.1 °F 82% 30.31 in 10.0 mi Calm Calm - N/A   Clear
10:54 PM 30.0 °F - 26.1 °F 85% 30.30 in 10.0 mi Calm Calm - N/A   Clear
11:54 PM 30.0 °F - 25.0 °F 82% 30.30 in 10.0 mi Calm Calm - N/A   Clear